TimePST,TemperatureF,Dew PointF,Humidity,Sea Level PressureIn,VisibilityMPH,Wind Direction,Wind SpeedMPH,Gust SpeedMPH,PrecipitationIn,Events,Conditions,WindDirDegrees,DateUTC
12:56 AM,50.0,34.0,54,30.23,10.0,SSW,9.2,-,N/A,,Overcast,200,2013-02-02 08:56:00
1:56 AM,50.0,33.1,52,30.25,10.0,SW,6.9,-,N/A,,Overcast,230,2013-02-02 09:56:00
2:56 AM,50.0,32.0,50,30.24,10.0,SW,6.9,-,N/A,,Overcast,220,2013-02-02 10:56:00
3:56 AM,46.9,33.1,59,30.24,10.0,SSW,4.6,-,N/A,,Overcast,200,2013-02-02 11:56:00
4:56 AM,46.9,33.1,59,30.24,10.0,SSW,9.2,-,N/A,,Overcast,200,2013-02-02 12:56:00
5:56 AM,46.9,33.1,59,30.25,10.0,SSW,8.1,-,N/A,,Overcast,200,2013-02-02 13:56:00
6:56 AM,46.9,33.1,59,30.26,10.0,SSW,11.5,-,N/A,,Overcast,200,2013-02-02 14:56:00
7:56 AM,50.0,33.1,52,30.28,10.0,South,6.9,-,N/A,,Mostly Cloudy,190,2013-02-02 15:56:00
8:56 AM,55.0,32.0,42,30.30,10.0,Calm,Calm,-,N/A,,Mostly Cloudy,0,2013-02-02 16:56:00
9:56 AM,57.0,30.0,36,30.30,10.0,South,3.5,-,N/A,,Mostly Cloudy,180,2013-02-02 17:56:00
10:56 AM,59.0,28.0,31,30.30,10.0,Calm,Calm,-,N/A,,Mostly Cloudy,0,2013-02-02 18:56:00
11:56 AM,62.1,25.0,24,30.25,10.0,Calm,Calm,-,N/A,,Mostly Cloudy,0,2013-02-02 19:56:00
12:56 PM,63.0,25.0,24,30.22,10.0,SE,3.5,-,N/A,,Mostly Cloudy,140,2013-02-02 20:56:00
1:56 PM,64.0,25.0,23,30.19,10.0,South,4.6,-,N/A,,Mostly Cloudy,180,2013-02-02 21:56:00
2:56 PM,64.9,24.1,21,30.17,10.0,South,4.6,-,N/A,,Mostly Cloudy,170,2013-02-02 22:56:00
3:56 PM,66.2,24.8,21,30.19,10.0,Calm,Calm,-,N/A,,Mostly Cloudy,0,2013-02-02 23:56:00
4:56 PM,64.0,24.1,22,30.17,10.0,SSW,4.6,-,N/A,,Mostly Cloudy,210,2013-02-03 00:56:00
5:56 PM,63.0,25.0,24,30.17,10.0,SSW,5.8,-,N/A,,Mostly Cloudy,200,2013-02-03 01:56:00
6:56 PM,62.1,27.0,26,30.17,10.0,South,5.8,-,N/A,,Mostly Cloudy,190,2013-02-03 02:56:00
7:56 PM,59.0,28.9,32,30.18,10.0,SSW,8.1,-,N/A,,Overcast,210,2013-02-03 03:56:00
8:56 PM,57.0,30.0,36,30.17,10.0,SSW,6.9,-,N/A,,Overcast,200,2013-02-03 04:56:00
9:56 PM,57.0,30.0,36,30.16,10.0,SSW,4.6,-,N/A,,Overcast,200,2013-02-03 05:56:00
10:56 PM,55.9,30.9,39,30.15,10.0,SSW,5.8,-,N/A,,Overcast,210,2013-02-03 06:56:00
11:56 PM,55.4,30.2,38,30.16,10.0,SSW,9.2,-,N/A,,Overcast,200,2013-02-03 07:56:00